• In Netherlands
  • List of Countries
  • For 7 days
  • Water Temperature
  • Satellite Maps
  • Weather Map
  • Weather Widgets
  • user-avatar
    Login

    Hourly Weather Saidpur

    Today, 27 May, Saturday

    Time Temperature Precipitation Wind Pressure Humidity
    00:00 +29°C° 0 mm 1 mps 751 mmHg 80%
    01:00 +28°C° 0.3 mm 1 mps 751 mmHg 81%
    02:00 +28°C° 0.3 mm 2 mps 751 mmHg 83%
    03:00 +28°C° 0.3 mm 2 mps 751 mmHg 84%
    04:00 +28°C° 1 mm 2 mps 751 mmHg 85%
    05:00 +27°C° 1 mm 2 mps 751 mmHg 87%
    06:00 +27°C° 0 mm 2 mps 751 mmHg 80%
    07:00 +29°C° 0 mm 2 mps 751 mmHg 73%
    08:00 +30°C° 0 mm 2 mps 751 mmHg 67%
    09:00 +32°C° 0 mm 2 mps 751 mmHg 61%
    10:00 +35°C° 0 mm 2 mps 751 mmHg 54%
    11:00 +36°C° 0 mm 2 mps 751 mmHg 48%
    12:00 +39°C° 0 mm 2 mps 751 mmHg 39%
    13:00 +39°C° 0 mm 1 mps 750 mmHg 38%
    14:00 +39°C° 0 mm 1 mps 749 mmHg 36%
    15:00 +40°C° 0 mm 1 mps 749 mmHg 35%
    16:00 +39°C° 0 mm 2 mps 748 mmHg 39%
    17:00 +38°C° 0 mm 2 mps 748 mmHg 42%
    18:00 +37°C° 0 mm 2 mps 748 mmHg 46%
    19:00 +35°C° 0.1 mm 2 mps 748 mmHg 52%
    20:00 +34°C° 0.1 mm 2 mps 748 mmHg 57%
    21:00 +31°C° 0.1 mm 2 mps 749 mmHg 63%
    22:00 +30°C° 0.1 mm 2 mps 749 mmHg 65%
    23:00 +30°C° 0.1 mm 2 mps 749 mmHg 68%

    Tomorrow, 28 May, Sunday

    Time Temperature Precipitation Wind Pressure Humidity
    00:00 +29°C° 0.1 mm 2 mps 750 mmHg 70%
    01:00 +29°C° 0.7 mm 2 mps 749 mmHg 73%
    02:00 +28°C° 0.7 mm 2 mps 749 mmHg 77%
    03:00 +27°C° 0.7 mm 2 mps 749 mmHg 80%
    04:00 +27°C° 0.1 mm 2 mps 749 mmHg 80%
    05:00 +27°C° 0.1 mm 2 mps 749 mmHg 80%
    06:00 +27°C° 0.1 mm 2 mps 749 mmHg 80%
    07:00 +29°C° 0.1 mm 2 mps 749 mmHg 74%
    08:00 +31°C° 0.1 mm 2 mps 750 mmHg 67%
    09:00 +35°C° 0.1 mm 2 mps 750 mmHg 61%
    10:00 +36°C° 0 mm 2 mps 750 mmHg 54%
    11:00 +38°C° 0 mm 2 mps 750 mmHg 48%
    12:00 +40°C° 0 mm 2 mps 750 mmHg 42%
    13:00 +40°C° 0 mm 2 mps 749 mmHg 40%
    14:00 +40°C° 0 mm 1 mps 748 mmHg 38%
    15:00 +41°C° 0 mm 1 mps 748 mmHg 36%
    16:00 +40°C° 0 mm 1 mps 747 mmHg 39%
    17:00 +39°C° 0 mm 1 mps 747 mmHg 42%
    18:00 +37°C° 0 mm 1 mps 746 mmHg 45%
    19:00 +36°C° 0.1 mm 1 mps 746 mmHg 49%
    20:00 +35°C° 0.1 mm 2 mps 747 mmHg 53%
    21:00 +32°C° 0.1 mm 2 mps 747 mmHg 57%
    22:00 +32°C° 0.1 mm 2 mps 747 mmHg 59%
    23:00 +31°C° 0.1 mm 2 mps 748 mmHg 60%

    Day after tomorrow, 29 May, Monday

    Time Temperature Precipitation Wind Pressure Humidity
    00:00 +31°C° 0.1 mm 2 mps 748 mmHg 62%
    01:00 +30°C° 0.3 mm 2 mps 748 mmHg 64%
    02:00 +30°C° 0.3 mm 1 mps 748 mmHg 66%
    03:00 +29°C° 0.3 mm 1 mps 748 mmHg 68%
    04:00 +29°C° 0.2 mm 1 mps 748 mmHg 70%
    05:00 +29°C° 0.2 mm 1 mps 748 mmHg 72%
    06:00 +28°C° 0.2 mm 1 mps 748 mmHg 74%
    07:00 +31°C° 0 mm 2 mps 749 mmHg 67%
    08:00 +34°C° 0 mm 2 mps 749 mmHg 59%
    09:00 +36°C° 0 mm 2 mps 749 mmHg 52%
    10:00 +37°C° 0 mm 2 mps 749 mmHg 46%
    11:00 +39°C° 0 mm 2 mps 748 mmHg 40%
    12:00 +40°C° 0 mm 2 mps 748 mmHg 34%
    13:00 +41°C° 0 mm 2 mps 747 mmHg 33%
    14:00 +41°C° 0 mm 2 mps 746 mmHg 31%
    15:00 +41°C° 0 mm 2 mps 746 mmHg 30%
    16:00 +40°C° 0 mm 2 mps 746 mmHg 33%
    17:00 +39°C° 0 mm 2 mps 745 mmHg 37%
    18:00 +38°C° 0 mm 2 mps 745 mmHg 40%
    19:00 +37°C° 0 mm 2 mps 746 mmHg 44%
    20:00 +35°C° 0 mm 1 mps 747 mmHg 48%
    21:00 +33°C° 0 mm 1 mps 747 mmHg 51%
    22:00 +33°C° 0 mm 1 mps 747 mmHg 52%
    23:00 +32°C° 0 mm 2 mps 747 mmHg 54%

    30 May, Tuesday

    Time Temperature Precipitation Wind Pressure Humidity
    00:00 +32°C° 0 mm 2 mps 747 mmHg 55%
    01:00 +32°C° 0 mm 2 mps 747 mmHg 59%
    02:00 +31°C° 0 mm 2 mps 747 mmHg 63%
    03:00 +31°C° 0 mm 2 mps 746 mmHg 68%
    04:00 +30°C° 0.2 mm 2 mps 747 mmHg 71%
    05:00 +30°C° 0.2 mm 2 mps 747 mmHg 74%
    06:00 +30°C° 0.2 mm 2 mps 747 mmHg 77%
    07:00 +30°C° 0.3 mm 2 mps 748 mmHg 75%
    08:00 +31°C° 0.3 mm 2 mps 748 mmHg 74%
    09:00 +31°C° 0.3 mm 2 mps 749 mmHg 72%
    10:00 +31°C° 0.5 mm 2 mps 749 mmHg 73%
    11:00 +31°C° 0.5 mm 3 mps 748 mmHg 74%
    12:00 +31°C° 0.5 mm 3 mps 748 mmHg 75%
    13:00 +30°C° 0.7 mm 3 mps 748 mmHg 77%
    14:00 +30°C° 0.7 mm 4 mps 747 mmHg 79%
    15:00 +29°C° 0.7 mm 4 mps 747 mmHg 81%
    16:00 +29°C° 0.5 mm 4 mps 747 mmHg 81%
    17:00 +28°C° 0.5 mm 4 mps 747 mmHg 82%
    18:00 +28°C° 0.5 mm 4 mps 746 mmHg 83%
    19:00 +28°C° 0.4 mm 4 mps 747 mmHg 83%
    20:00 +27°C° 0.4 mm 4 mps 748 mmHg 83%
    21:00 +27°C° 0.4 mm 4 mps 748 mmHg 83%
    22:00 +27°C° 0.5 mm 4 mps 748 mmHg 84%
    23:00 +27°C° 0.5 mm 4 mps 748 mmHg 85%

    31 May, Wednesday

    Time Temperature Precipitation Wind Pressure Humidity
    00:00 +27°C° 0.5 mm 5 mps 748 mmHg 85%
    01:00 +27°C° 0.7 mm 4 mps 747 mmHg 86%
    02:00 +26°C° 0.7 mm 4 mps 746 mmHg 87%
    03:00 +26°C° 0.7 mm 4 mps 746 mmHg 88%
    04:00 +26°C° 0.6 mm 4 mps 746 mmHg 89%
    05:00 +26°C° 0.6 mm 4 mps 746 mmHg 89%
    06:00 +26°C° 0.6 mm 4 mps 746 mmHg 89%
    07:00 +26°C° 0.2 mm 5 mps 746 mmHg 88%
    08:00 +27°C° 0.2 mm 5 mps 746 mmHg 86%
    09:00 +27°C° 0.2 mm 6 mps 746 mmHg 85%
    10:00 +27°C° 0.9 mm 6 mps 746 mmHg 83%
    11:00 +28°C° 0.9 mm 6 mps 745 mmHg 80%
    12:00 +28°C° 0.9 mm 6 mps 745 mmHg 78%
    13:00 +28°C° 2.1 mm 6 mps 744 mmHg 81%
    14:00 +27°C° 2.1 mm 5 mps 743 mmHg 85%
    15:00 +26°C° 2.1 mm 5 mps 742 mmHg 88%
    16:00 +26°C° 0.8 mm 5 mps 743 mmHg 88%
    17:00 +26°C° 0.8 mm 5 mps 743 mmHg 88%
    18:00 +26°C° 0.8 mm 5 mps 743 mmHg 89%
    19:00 +26°C° 1.4 mm 5 mps 743 mmHg 89%
    20:00 +26°C° 1.4 mm 5 mps 744 mmHg 90%
    21:00 +26°C° 1.4 mm 4 mps 744 mmHg 91%
    22:00 +26°C° 1.7 mm 4 mps 744 mmHg 91%
    23:00 +25°C° 1.7 mm 3 mps 744 mmHg 92%

    1 June, Thursday

    Time Temperature Precipitation Wind Pressure Humidity
    00:00 +25°C° 1.7 mm 3 mps 744 mmHg 92%
    01:00 +25°C° 1.6 mm 2 mps 744 mmHg 93%
    02:00 +25°C° 1.6 mm 2 mps 744 mmHg 93%
    03:00 +25°C° 1.6 mm 1 mps 744 mmHg 93%
    04:00 +26°C° 1 mm 1 mps 745 mmHg 93%
    05:00 +26°C° 1 mm 1 mps 745 mmHg 93%
    06:00 +26°C° 1 mm 2 mps 746 mmHg 93%
    07:00 +27°C° 0 mm 1 mps 747 mmHg 88%
    08:00 +28°C° 0 mm 1 mps 747 mmHg 84%
    09:00 +30°C° 0 mm 1 mps 748 mmHg 79%
    10:00 +31°C° 0.1 mm 2 mps 748 mmHg 74%
    11:00 +32°C° 0.1 mm 2 mps 748 mmHg 69%
    12:00 +34°C° 0.1 mm 2 mps 748 mmHg 65%
    13:00 +35°C° 0.1 mm 3 mps 747 mmHg 63%
    14:00 +35°C° 0.1 mm 3 mps 747 mmHg 61%
    15:00 +36°C° 0.1 mm 3 mps 746 mmHg 59%
    16:00 +35°C° 0.1 mm 3 mps 746 mmHg 63%
    17:00 +34°C° 0.1 mm 3 mps 747 mmHg 67%
    18:00 +33°C° 0.1 mm 3 mps 747 mmHg 71%
    19:00 +31°C° 0 mm 3 mps 747 mmHg 75%
    20:00 +30°C° 0 mm 3 mps 748 mmHg 80%
    21:00 +29°C° 0 mm 3 mps 748 mmHg 84%
    22:00 +28°C° 0.6 mm 3 mps 748 mmHg 87%
    23:00 +28°C° 0.6 mm 3 mps 748 mmHg 90%
    Show more